Date String (YYYY-MM-DD hh:mm:ss) UTC,Instrument flags,absolute air pressure of the measurement (hPa),sample flow rate (lpm),inlet stack bypass flow (lpm),air temperature of the measurement (°C),ambient temperature measured by the external sensor (°C),aerosol sample conditioner tube jacket temperature (°C),OPC LED temperature (°C),internal box temperature (°C),relative humidity of the measurement (%),span deviation,mass concentration of particles derived from Lorenz-Mie calculation of OPC scattering (μg/m³),mass concentration of particles derived from Lorenz-Mie calculation of OPC scattering (μg/m³),mass concentration of particles derived from Lorenz-Mie calculation of OPC scattering (μg/m³)
DateTimeUTC,F1_M11,P_M11,Q1_M11,Q2_M11,T1_M11,T2_M11,T3_M11,T4_M11,T5_M11,U1_M11,ZSPAN_M11,X0_M11,X2_M11,X1_M11
2023-10-29 05:00:00,SystemResetWarning,0835.0,5.01,000.00,021.7,020.8,000.0,030.0,023.3,14.5,0000.0,0008.05,0005.74,0005.46
2023-10-29 05:01:00,SystemResetWarning,0835.0,5.00,000.00,021.7,020.7,000.0,030.0,023.3,14.5,0000.0,0008.09,0005.77,0005.47
2023-10-29 05:02:00,SystemResetWarning,0835.0,5.00,000.00,021.7,020.6,000.0,030.0,023.2,14.5,0000.0,0008.08,0005.77,0005.48
2023-10-29 05:03:00,SystemResetWarning,0835.0,4.99,000.00,021.7,020.5,000.0,030.0,023.2,14.5,0000.0,0008.18,0005.83,0005.51
2023-10-29 05:04:00,SystemResetWarning,0834.9,4.99,000.00,021.7,020.4,000.0,030.0,023.2,14.5,0000.0,0008.26,0005.89,0005.56
2023-10-29 05:05:00,SystemResetWarning,0834.9,5.00,000.00,021.7,020.4,000.0,030.0,023.2,14.5,0000.0,0008.31,0005.96,0005.61
2023-10-29 05:06:00,SystemResetWarning,0834.9,5.01,000.00,021.7,020.3,000.0,030.0,023.2,14.6,0000.0,0008.26,0005.98,0005.66
2023-10-29 05:07:00,SystemResetWarning,0834.9,5.00,000.00,021.6,020.3,000.0,030.0,023.1,14.6,0000.0,0008.40,0006.07,0005.73
2023-10-29 05:08:00,SystemResetWarning,0835.2,5.00,000.00,021.6,020.2,000.0,030.0,023.1,14.6,0000.0,0008.46,0006.14,0005.79
2023-10-29 05:09:00,SystemResetWarning,0834.8,5.01,000.00,021.6,020.2,000.0,030.0,023.1,14.6,0000.0,0008.50,0006.19,0005.85
2023-10-29 05:10:00,SystemResetWarning,0834.9,5.00,000.00,021.6,020.2,000.0,030.0,023.1,14.6,0000.0,0008.55,0006.23,0005.89
2023-10-29 05:11:00,SystemResetWarning,0835.0,5.00,000.00,021.6,020.2,000.0,030.0,023.1,14.7,0000.0,0008.55,0006.26,0005.93
2023-10-29 05:12:00,SystemResetWarning,0835.0,5.00,000.00,021.6,020.2,000.0,030.0,023.1,14.7,0000.0,0008.53,0006.27,0005.97
2023-10-29 05:13:00,SystemResetWarning,0835.0,5.00,000.00,021.6,020.2,000.0,030.0,023.0,14.7,0000.0,0008.57,0006.31,0006.01
2023-10-29 05:14:00,SystemResetWarning,0835.1,5.00,000.00,021.6,020.2,000.0,030.0,023.0,14.7,0000.0,0008.63,0006.35,0006.04
2023-10-29 05:15:00,SystemResetWarning,0835.1,5.00,000.00,021.5,020.1,000.0,030.0,023.0,14.7,0000.0,0008.66,0006.36,0006.07
2023-10-29 05:16:00,SystemResetWarning,0835.1,5.00,000.00,021.5,020.1,000.0,029.9,023.0,14.7,-000.1,0008.74,0006.38,0006.10
2023-10-29 05:17:00,SystemResetWarning,0835.1,5.00,000.00,021.5,020.1,000.0,029.9,023.0,14.6,-002.2,0008.78,0006.41,0006.13
2023-10-29 05:18:00,SystemResetWarning,0835.2,5.00,000.00,021.5,020.1,000.0,029.9,023.0,14.6,-000.2,0008.81,0006.43,0006.14
2023-10-29 05:19:00,SystemResetWarning,0835.3,5.00,000.00,021.5,020.1,000.0,029.9,023.0,14.6,-002.7,0008.93,0006.49,0006.16
2023-10-29 05:20:00,SystemResetWarning,0835.3,5.00,000.00,021.5,020.1,000.0,029.9,023.0,14.5,-003.4,0008.97,0006.51,0006.17
2023-10-29 05:21:00,SystemResetWarning,0835.3,5.00,000.00,021.5,020.1,000.0,029.9,023.0,14.5,-003.5,0009.00,0006.53,0006.19
2023-10-29 05:22:00,SystemResetWarning,0835.2,5.01,000.00,021.5,020.1,000.0,029.9,023.0,14.5,-003.6,0009.05,0006.57,0006.22
2023-10-29 05:23:00,SystemResetWarning,0835.2,5.01,000.00,021.6,020.5,000.0,029.8,023.3,14.4,-003.5,0009.12,0006.61,0006.26
2023-10-29 05:24:00,SystemResetWarning,0835.3,5.00,000.00,021.7,021.4,000.0,029.8,023.6,14.3,-003.0,0009.17,0006.65,0006.30
2023-10-29 05:25:00,SystemResetWarning,0835.3,4.99,000.00,021.8,021.6,000.0,029.8,023.6,14.3,-002.6,0009.15,0006.67,0006.32
2023-10-29 05:26:00,SystemResetWarning,0835.3,4.99,000.00,021.8,021.5,000.0,029.9,023.5,14.2,-002.0,0009.07,0006.64,0006.32
2023-10-29 05:27:00,SystemResetWarning,0835.3,5.00,000.00,021.8,021.3,000.0,029.9,023.4,14.2,-001.8,0008.98,0006.64,0006.32
2023-10-29 05:28:00,SystemResetWarning,0835.3,5.00,000.00,021.8,021.2,000.0,030.0,023.4,14.2,-001.4,0009.19,0006.59,0006.28
2023-10-29 05:29:00,SystemResetWarning,0835.3,5.01,000.00,021.8,021.0,000.0,030.0,023.3,14.2,-001.6,0009.34,0006.52,0006.23
2023-10-29 05:30:00,SystemResetWarning,0835.3,5.00,000.00,021.8,020.9,000.0,030.0,023.3,14.2,-002.1,0009.31,0006.44,0006.18
2023-10-29 05:31:00,SystemResetWarning,0835.3,5.00,000.00,021.7,020.8,000.0,030.0,023.3,14.2,-002.0,0009.31,0006.39,0006.13
2023-10-29 05:32:00,SystemResetWarning,0835.3,5.00,000.00,021.7,020.7,000.0,030.0,023.2,14.2,-001.3,0009.23,0006.32,0006.06
2023-10-29 05:33:00,SystemResetWarning,0835.2,5.00,000.00,021.7,020.7,000.0,030.0,023.2,14.1,-000.3,0009.12,0006.24,0006.00
2023-10-29 05:34:00,SystemResetWarning,0835.2,5.00,000.00,021.7,020.6,000.0,030.0,023.2,14.1,0000.0,0008.97,0006.14,0005.92
2023-10-29 05:35:00,SystemResetWarning,0835.2,5.00,000.00,021.7,020.5,000.0,030.0,023.2,14.1,0000.0,0008.91,0006.06,0005.84
2023-10-29 05:36:00,SystemResetWarning,0835.3,5.00,000.00,021.7,020.5,000.0,030.0,023.2,14.1,0000.0,0008.94,0006.03,0005.79
2023-10-29 05:37:00,SystemResetWarning,0835.3,5.00,000.00,021.7,020.4,000.0,030.0,023.2,14.1,0000.0,0008.93,0005.99,0005.75
2023-10-29 05:38:00,SystemResetWarning,0835.2,5.00,000.00,021.7,020.4,000.0,030.0,023.2,14.1,0000.0,0008.92,0005.98,0005.72
2023-10-29 05:39:00,SystemResetWarning,0835.1,5.00,000.00,021.7,020.4,000.0,030.0,023.2,14.1,0000.0,0008.75,0005.97,0005.71
2023-10-29 05:40:00,SystemResetWarning,0835.1,5.00,000.00,021.7,020.4,000.0,030.0,023.2,14.1,0000.0,0008.41,0006.00,0005.73
2023-10-29 05:41:00,SystemResetWarning,0835.1,4.99,000.00,021.7,020.3,000.0,030.0,023.2,14.1,0000.0,0008.46,0006.04,0005.74
2023-10-29 05:42:00,SystemResetWarning,0835.1,5.01,000.00,021.7,020.3,000.0,030.0,023.1,14.1,0000.0,0008.42,0006.07,0005.76
2023-10-29 05:43:00,SystemResetWarning,0835.1,5.01,000.00,021.7,020.3,000.0,030.0,023.1,14.2,0000.0,0008.40,0006.08,0005.79
2023-10-29 05:44:00,SystemResetWarning,0835.1,5.00,000.00,021.6,020.3,000.0,030.0,023.1,14.2,0000.0,0008.44,0006.11,0005.81
2023-10-29 05:45:00,SystemResetWarning,0835.2,5.00,000.00,021.6,020.2,000.0,030.0,023.1,14.2,0000.0,0008.80,0006.15,0005.83
2023-10-29 05:46:00,SystemResetWarning,0835.2,5.00,000.00,021.6,020.2,000.0,030.0,023.1,14.2,0000.0,0008.93,0006.20,0005.87
2023-10-29 05:47:00,SystemResetWarning,0835.1,4.99,000.00,021.6,020.2,000.0,030.0,023.1,14.2,0000.0,0008.85,0006.19,0005.89
2023-10-29 05:48:00,SystemResetWarning,0835.2,4.99,000.00,021.6,020.2,000.0,030.0,023.1,14.2,0000.0,0008.80,0006.20,0005.91
2023-10-29 05:49:00,SystemResetWarning,0835.2,5.01,000.00,021.6,020.2,000.0,030.0,023.1,14.2,0000.0,0008.81,0006.20,0005.93
2023-10-29 05:50:00,SystemResetWarning,0835.1,5.01,000.00,021.6,020.2,000.0,030.0,023.1,14.2,0000.0,0008.88,0006.23,0005.95
2023-10-29 05:51:00,SystemResetWarning,0835.1,5.00,000.00,021.6,020.2,000.0,030.0,023.1,14.2,0000.0,0008.95,0006.26,0005.95
2023-10-29 05:52:00,SystemResetWarning,0835.1,5.00,000.00,021.6,020.2,000.0,029.9,023.1,14.3,0000.0,0008.88,0006.25,0005.96
2023-10-29 05:53:00,SystemResetWarning,0835.1,5.00,000.00,021.6,020.4,000.0,029.9,023.3,14.3,0000.0,0008.81,0006.24,0005.97
2023-10-29 05:54:00,SystemResetWarning,0835.2,5.00,000.00,021.7,021.1,000.0,029.8,023.6,14.2,0000.0,0008.85,0006.26,0005.98
2023-10-29 05:55:00,SystemResetWarning,0835.3,4.99,000.00,021.8,021.6,000.0,029.9,023.7,14.1,0000.0,0008.86,0006.27,0005.98
2023-10-29 05:56:00,SystemResetWarning,0835.3,4.99,000.00,021.9,021.6,000.0,029.9,023.7,14.1,0000.0,0008.59,0006.26,0005.98
2023-10-29 05:57:00,SystemResetWarning,0835.2,5.00,000.00,021.9,021.5,000.0,030.0,023.6,14.1,0000.0,0008.55,0006.27,0005.97
2023-10-29 05:58:00,SystemResetWarning,0835.2,4.99,000.00,021.9,021.3,000.0,030.0,023.5,14.1,0000.0,0008.57,0006.27,0005.96
2023-10-29 05:59:00,SystemResetWarning,0835.2,5.00,000.00,021.8,021.2,000.0,030.0,023.4,14.1,0000.0,0008.83,0006.28,0005.94
